Location: Bidwell Hollow
(37.7387°N, 90.1707°W)
Time: 04:35:08
(UTC+00:00)

Explorer 11/Cluster Stage 4 - Pass Details

Date: 15 May 2026
Orbit: 463 x 1173 km, 28.8° (Epoch: 11 June)

Event Time Altitude Azimuth Distance (km) Brightness Sun altitude
Rises 02:48:33 0° 216° (SW) 3,980 10.1 -18.1°
Reaches altitude 10° 02:52:25 10° 200° (SSW) 2,946 9.3 -18.7°
Enters shadow 02:54:53 16° 182° (S) 2,467 8.7 -19.0°
